Погода в Поперечном

Россия / Кемеровская область (Кузбасс)     55°30′19″N   84°59′02″E
темп.,
°C
ветер,
м/с
пор.,
м/с
влажн.,
%
обл.,
%
осадки,
мм/ч
давл.,
гПа
погр.,
м
28 февраля, вс
вс2801:00−28юз349996 0.0 103983
04:00−29ююз349996 0.0 103948
07:00−30ююз349793 0.0 104066
10:00−27ю469698 0.0 1039169
13:00−22ю359594 0.0 1036250
16:00−19ююв369182 0.0 1034338
19:00−20вюв349891 0.0 103183
22:00−18юв3697100 0.1 1029138
1 марта, пн
пн101:00−15юв3696100 0.3 1026146
04:00−13вюв4795100 0.2 1022210
07:00−12вюв4795100 0.6 1019254
10:00−10вюв4795100 0.9 1016263
13:00−6вюв5795100 1.8 1012508
16:00−4вюв5796100 1.4 1010486
19:00−4в5896100 4.9 1008337
22:00−10св61097100 3.4 1008198
2 марта, вт
вт201:00−11св4795100 5.3 1008215
04:00−13ссв4696100 0.4 1009233
07:00−16с349797 0.8 101273
10:00−17ссв239684 0.1 1014136
13:00−14сз229091 0.2 1016312
16:00−13зсз2289100 0.1 1016350
19:00−15ссв1196100 0.2 101720
22:00−16вюв1197100 0.2 101820
3 марта, ср
ср301:00−15ююв1296100 0.3 101721
04:00−15ю119687 0.1 101720
07:00−15юз119687 0.2 101820
10:00−14ю009586 0.1 101760
13:00−11ююз228788 0.1 1018399
16:00−10юз1286100 0.1 1017398
19:00−12зюз2296100 0.3 101921
22:00−13юз339694 0.1 102166
4 марта, чт
чт401:00−16ююз349791 0.1 102359
04:00−17ю489781 0.1 1023143
07:00−16ю6119388 0.1 1024251
10:00−13ю7129397 0.1 1023382
13:00−8ю7119298 0.3 1022636
16:00−6ю71192100 0.3 1020740
19:00−6ю71392100 0.5 1020611
22:00−6ю71493100 0.3 1018513